APSTAR 7

Last updated on Nov. 18, 2019, 4:21 a.m. UTC

1 38107U 12013A   19320.93986825 -.00000094  00000-0  00000-0 0  9995
2 38107   0.0520  97.6519 0003077 128.7888 244.1854  1.00272503 28068
UTC
Height (km)
Latitude
Longitude
Inclination
Orbital Period
UTC large
Height (km)
Speed (km/s)
/
Latitude / Longitude
Inclination (degrees)
Orbital Period (minutes)
Azimuth
Elevation
Range (km)
Doppler Factor
iOS Compass Heading
iOS Angle

Next 30 passes for location: Hong Kong

Rise time Rise Azimuth (degrees) Set time Set Azimuth (degrees) Duration Max altitude (degrees)

No matching passes for this satellites